Wind_Speed
59 61 64 68 70 71 71 71 69 66 64 63 62 60 60 60 60 61 61 62 63 64 63 63 63 63 63 63 62 61 59 57 56 55 54 52 51 50
61 64 67 68 69 69 69 69 68 67 65 63 62 61 59 58 57 58 59 60 61 62 62 62 63 64 64 64 64 64 62 60 58 57 55 54 53 52
63 65 66 67 68 68 67 66 66 66 66 63 62 59 55 51 49 50 51 51 52 53 54 55 56 57 59 61 63 63 62 61 60 59 57 56 55 54
63 65 65 66 65 65 65 64 64 63 61 58 53 49 46 44 42 41 40 40 41 41 43 44 44 46 50 54 57 59 60 61 61 60 59 58 56 55
63 64 63 63 63 63 62 60 57 54 52 49 44 42 40 39 37 35 33 33 33 34 35 36 38 41 44 47 50 53 55 58 59 59 58 57 56 54
62 62 62 62 61 59 54 50 47 46 44 42 37 35 33 31 30 29 28 27 28 30 32 33 35 38 39 41 43 45 48 49 51 51 51 52 52 52
60 61 60 57 54 49 45 43 43 41 39 34 29 26 25 25 25 24 22 23 24 25 27 28 29 30 32 34 35 37 39 41 42 43 45 47 48 48
58 57 53 48 44 42 40 39 39 35 29 24 21 20 20 20 19 18 16 17 17 19 18 18 19 20 22 23 25 27 30 33 36 38 40 42 44 45
53 48 44 41 40 37 35 34 32 27 20 16 14 16 15 14 12 11 10 10 10 11 10 10 12 13 14 15 16 18 21 26 30 33 36 39 41 43
44 39 37 36 35 32 29 26 21 16 12 10 10 9 8 7 6 4 4 4 4 5 4 4 6 7 8 10 12 14 17 21 26 30 33 37 39 40
35 33 33 32 30 26 20 15 12 9 7 5 4 3 3 2 1 1 1 1 2 2 4 5 6 7 8 10 12 15 18 21 25 29 33 36 38 39
28 29 29 26 21 16 11 7 4 2 2 3 3 4 5 5 4 4 3 2 3 5 7 9 11 12 12 13 14 16 19 22 26 29 32 35 38 39
23 23 21 17 12 8 5 4 6 6 6 6 7 7 7 7 6 5 5 7 8 10 11 12 12 12 11 11 12 13 16 20 24 28 31 34 36 38
18 15 12 9 7 7 8 9 10 10 9 8 8 7 7 6 6 7 9 11 11 9 7 6 5 5 5 7 8 10 12 16 19 24 28 32 35 38
11 7 7 8 8 10 11 12 11 10 9 8 7 6 6 6 8 10 11 9 7 7 5 3 2 2 2 0 1 3 5 9 13 18 24 29 33 37
5 6 8 10 11 12 12 11 10 9 8 7 6 6 7 9 10 11 9 9 9 10 10 9 10 10 10 10 11 11 10 9 9 12 18 25 31 35
4 6 9 11 11 11 10 9 8 7 6 5 6 7 9 11 11 10 10 11 13 13 13 14 14 15 16 17 18 18 17 16 15 15 18 23 28 33
5 8 9 10 10 9 9 8 7 6 5 6 7 9 10 11 12 12 13 14 15 16 17 18 18 19 20 21 22 22 22 21 20 18 18 20 24 28
7 8 9 9 10 10 9 8 7 6 6 7 8 10 11 12 13 14 16 17 17 17 18 19 19 20 21 22 23 25 26 26 25 23 22 20 20 23
9 9 9 10 10 10 9 8 8 8 8 8 9 10 12 13 14 16 18 19 19 19 20 20 20 21 22 21 21 24 26 26 25 24 25 24 22 22
10 10 10 10 10 9 9 8 8 8 8 9 10 11 13 14 16 18 19 20 20 21 21 21 21 21 21 20 19 20 22 23 23 24 25 25 25 25
12 11 10 10 10 9 8 7 7 8 8 9 11 12 13 15 17 18 19 20 21 22 24 24 24 23 22 21 20 21 22 23 23 23 23 24 24 23
12 11 10 9 10 9 8 8 8 8 9 11 12 13 15 16 18 19 20 20 21 22 23 24 25 24 24 24 23 23 24 25 26 25 24 25 25 24
Wind_Direction
295 296 297 297 297 296 296 295 295 293 291 290 288 286 283 281 278 276 273 271 269 266 265 264 264 263 262 261 261 260 258 256 254 252 250 249 248 246
299 299 299 298 297 296 296 295 295 294 292 290 288 286 283 280 278 276 273 270 268 267 265 264 262 261 260 258 257 256 255 253 250 248 247 246 245 244
300 300 299 298 297 296 296 296 295 294 292 291 290 287 284 282 280 278 276 273 270 268 266 264 262 260 257 255 253 252 251 249 247 245 244 243 243 241
300 299 299 298 298 297 297 296 295 294 293 292 290 287 284 284 284 282 280 275 269 266 264 263 261 258 255 252 250 248 247 245 244 242 241 241 240 238
300 300 300 300 299 299 298 297 297 296 294 292 289 285 284 285 284 282 279 273 267 264 262 260 257 255 252 250 248 246 245 244 243 241 239 238 236 235
302 302 302 301 301 300 300 300 299 298 296 293 289 285 284 283 283 282 278 271 265 262 260 257 254 253 251 249 247 245 244 242 240 237 234 231 231 230
305 304 303 302 302 302 303 302 300 299 297 293 289 284 282 283 286 285 279 271 266 263 259 255 252 250 248 246 244 242 240 237 233 229 225 224 224 225
305 304 304 304 305 305 304 303 301 301 299 294 289 285 285 288 289 286 278 269 262 259 255 251 250 246 243 241 238 235 231 227 222 220 219 219 219 219
305 305 306 307 307 305 303 301 299 299 298 294 291 292 291 293 290 282 273 260 248 250 250 243 244 242 241 237 232 226 221 216 213 213 213 214 214 214
307 308 310 312 311 309 305 301 299 298 297 296 298 299 298 297 291 272 253 242 241 249 253 247 251 250 248 242 232 225 219 213 210 209 210 211 211 212
311 314 316 317 316 314 311 307 303 301 301 305 314 325 341 353 4 354 312 292 279 284 296 294 288 281 270 256 242 232 225 220 216 213 212 212 212 212
317 320 321 323 324 324 323 322 329 6 47 51 55 58 59 60 56 49 37 7 334 316 307 300 292 284 276 269 257 244 236 229 223 219 217 215 214 212
321 323 325 331 341 354 18 61 82 84 81 77 76 72 68 64 57 38 9 342 325 312 302 293 286 280 273 267 261 250 240 232 227 223 219 216 214 212
326 327 337 357 24 54 76 86 86 85 82 76 73 75 71 56 28 3 348 337 328 320 309 296 283 273 263 262 259 251 240 228 222 218 215 213 211 209
336 352 17 40 64 80 88 89 86 80 74 71 70 66 49 22 4 356 353 357 13 28 33 49 70 95 102 357 241 216 210 209 212 211 208 206 204 203
6 39 56 66 75 83 88 86 81 74 70 66 55 39 21 7 1 3 18 37 54 53 65 76 87 88 88 86 92 96 102 122 147 169 182 187 190 193
63 79 80 77 78 80 81 78 74 69 62 50 37 26 16 10 12 28 48 66 70 72 80 89 93 92 91 85 86 90 92 101 111 126 150 166 175 182
108 100 88 81 80 77 74 72 68 65 59 50 41 32 24 23 33 50 67 75 80 84 88 92 96 96 93 89 89 89 90 95 103 114 130 146 160 171
121 107 92 87 84 79 75 71 69 72 72 61 49 39 36 40 50 64 71 74 82 86 90 95 98 97 95 94 94 94 95 95 96 102 111 123 141 157
124 110 97 94 88 78 73 74 78 81 77 65 55 50 51 57 68 73 75 76 79 84 90 94 98 99 100 99 98 99 99 100 101 104 109 114 127 142
121 110 102 96 84 76 73 78 85 86 78 69 67 65 66 76 82 81 79 77 77 80 86 90 95 99 103 104 104 102 100 103 106 111 114 117 121 126
115 107 98 88 75 71 73 85 93 91 86 84 82 78 82 91 93 89 84 80 76 76 78 81 85 91 96 98 97 96 95 96 100 104 111 117 122 125
108 98 88 76 68 68 77 92 100 99 99 98 92 89 94 102 102 96 90 85 80 78 77 79 84 88 91 91 90 90 91 92 94 95 101 109 115 122
Height
5682 5676 5670 5663 5655 5648 5641 5634 5629 5626 5624 5619 5615 5611 5607 5603 5601 5599 5599 5599 5599 5600 5603 5605 5608 5611 5615 5619 5624 5629 5634 5639 5644 5649 5653 5658 5664 5669
5668 5661 5654 5646 5639 5631 5624 5617 5610 5605 5603 5600 5595 5592 5588 5584 5581 5579 5578 5578 5578 5579 5582 5585 5588 5591 5595 5600 5605 5610 5616 5622 5627 5632 5638 5644 5650 5655
5653 5645 5638 5630 5622 5615 5607 5600 5593 5586 5582 5580 5575 5571 5568 5565 5563 5560 5559 5558 5559 5559 5561 5564 5568 5571 5575 5579 5585 5590 5597 5603 5609 5616 5622 5628 5634 5641
5637 5630 5622 5614 5606 5598 5590 5583 5575 5568 5563 5561 5558 5554 5551 5549 5547 5545 5543 5542 5543 5544 5545 5548 5551 5553 5556 5560 5565 5571 5577 5584 5591 5598 5606 5613 5620 5626
5622 5614 5606 5598 5590 5581 5573 5566 5559 5553 5547 5544 5542 5540 5538 5536 5534 5532 5531 5530 5530 5532 5534 5536 5538 5539 5541 5544 5548 5553 5560 5566 5574 5581 5588 5596 5604 5612
5607 5599 5590 5581 5573 5565 5558 5551 5545 5540 5535 5531 5529 5528 5527 5525 5523 5522 5521 5520 5521 5522 5523 5525 5526 5527 5528 5531 5535 5539 5544 5550 5556 5564 5572 5581 5590 5598
5592 5583 5574 5566 5557 5550 5545 5539 5534 5529 5524 5521 5520 5519 5518 5517 5515 5514 5513 5513 5513 5513 5514 5515 5516 5517 5518 5520 5523 5527 5531 5537 5543 5551 5559 5568 5577 5586
5578 5568 5560 5552 5546 5540 5535 5529 5524 5519 5515 5513 5513 5512 5512 5510 5509 5508 5507 5507 5507 5508 5507 5508 5508 5510 5511 5513 5515 5518 5522 5527 5534 5541 5549 5558 5566 5575
5564 5556 5549 5542 5536 5531 5526 5521 5516 5512 5509 5508 5508 5508 5507 5506 5505 5504 5503 5503 5503 5503 5503 5504 5505 5506 5507 5508 5511 5514 5517 5521 5527 5534 5541 5549 5558 5566
5553 5546 5540 5533 5527 5522 5517 5513 5510 5508 5506 5506 5505 5505 5504 5503 5502 5502 5501 5502 5502 5501 5501 5502 5503 5503 5504 5506 5508 5510 5513 5517 5522 5528 5535 5542 5550 5558
5544 5538 5532 5526 5521 5515 5511 5509 5507 5506 5505 5505 5504 5504 5503 5502 5502 5501 5501 5501 5501 5501 5500 5501 5501 5501 5502 5503 5505 5507 5509 5513 5517 5522 5529 5536 5543 5551
5538 5532 5527 5521 5516 5512 5509 5507 5506 5506 5505 5505 5505 5504 5504 5503 5502 5502 5502 5502 5501 5500 5499 5498 5498 5498 5498 5499 5500 5502 5504 5507 5512 5516 5522 5529 5536 5545
5534 5529 5524 5519 5515 5512 5509 5508 5508 5507 5507 5507 5507 5506 5506 5505 5504 5504 5503 5501 5500 5498 5497 5495 5494 5494 5494 5494 5495 5496 5498 5500 5505 5510 5516 5522 5530 5539
5531 5527 5523 5519 5516 5514 5512 5511 5511 5510 5510 5510 5509 5509 5508 5507 5506 5504 5503 5501 5498 5496 5494 5493 5492 5491 5491 5491 5491 5492 5493 5495 5498 5503 5509 5516 5524 5532
5529 5526 5523 5521 5518 5517 5515 5515 5515 5514 5513 5513 5512 5511 5510 5509 5507 5505 5502 5500 5497 5495 5493 5492 5492 5491 5491 5491 5490 5489 5490 5491 5494 5498 5503 5510 5518 5528
5529 5527 5525 5523 5521 5520 5519 5519 5518 5517 5516 5516 5515 5514 5512 5510 5508 5505 5503 5500 5498 5497 5495 5494 5494 5494 5493 5493 5492 5491 5491 5492 5493 5495 5500 5507 5515 5524
5530 5529 5527 5526 5525 5524 5523 5522 5521 5521 5520 5519 5518 5516 5514 5512 5509 5506 5504 5502 5501 5500 5499 5498 5498 5498 5498 5497 5497 5497 5496 5497 5498 5499 5503 5508 5515 5524
5531 5531 5530 5529 5528 5528 5527 5526 5525 5523 5523 5522 5521 5519 5517 5514 5512 5510 5508 5507 5506 5505 5504 5504 5504 5504 5504 5504 5504 5503 5503 5504 5505 5507 5511 5515 5521 5527
5533 5532 5532 5532 5531 5531 5530 5529 5528 5527 5526 5525 5524 5522 5520 5518 5516 5514 5513 5512 5511 5511 5510 5510 5510 5510 5511 5512 5512 5511 5511 5512 5513 5515 5518 5522 5527 5533
5534 5535 5535 5534 5534 5534 5533 5532 5531 5530 5530 5529 5528 5526 5524 5523 5521 5521 5520 5519 5518 5517 5517 5517 5517 5517 5518 5520 5521 5520 5519 5520 5522 5524 5526 5530 5535 5539
5536 5537 5537 5537 5537 5536 5535 5535 5534 5534 5534 5533 5532 5530 5529 5528 5528 5527 5527 5526 5525 5525 5524 5524 5524 5525 5526 5527 5528 5528 5528 5528 5530 5532 5534 5538 5543 5547
5539 5540 5540 5540 5540 5539 5538 5538 5538 5538 5538 5537 5536 5535 5535 5534 5535 5534 5534 5534 5533 5533 5532 5532 5532 5533 5533 5534 5535 5536 5536 5537 5538 5539 5541 5544 5548 5553
5542 5543 5543 5543 5542 5542 5541 5541 5541 5542 5542 5542 5541 5541 5540 5541 5541 5542 5542 5542 5542 5541 5541 5541 5541 5541 5542 5542 5543 5544 5544 5545 5546 5548 5551 5552 5555 5559